This is the latest recevied weather packets stored in our database for station/object K1FFK-1. If no packets are shown the sender has not sent any weather packets the latest 1 day(s).
| Time | Temp. | Humidity | Pressure | Rain* | Wind** | Luminosity | Snow |
|---|---|---|---|---|---|---|---|
| 1778020293 | 16.67° C | 56% | 1013.3 hPa | 0 mm | 1.34 m/s, 322° | - | - |
| 1778019694 | 16.67° C | 51% | 1012.7 hPa | 0 mm | 1.34 m/s, 213° | - | - |
| 1778019093 | 17.22° C | 52% | 1012.8 hPa | 0 mm | 1.79 m/s, 208° | - | - |
| 1778018495 | 17.22° C | 47% | 1012.6 hPa | 0 mm | 1.34 m/s, 198° | - | - |
| 1778017893 | 17.22° C | 47% | 1012.3 hPa | 0 mm | 1.79 m/s, 205° | - | - |
| 1778017294 | 17.78° C | 49% | 1012.6 hPa | 0 mm | 2.24 m/s, 192° | - | - |
| 1778016694 | 17.78° C | 48% | 1012.6 hPa | 0 mm | 1.79 m/s, 215° | - | - |
| 1778016093 | 18.33° C | 47% | 1012.5 hPa | 0 mm | 1.34 m/s, 210° | - | - |
| 1778015493 | 18.89° C | 46% | 1011.8 hPa | 0 mm | 2.68 m/s, 196° | - | - |
| 1778014893 | 19.44° C | 45% | 1011.9 hPa | 0 mm | 2.24 m/s, 202° | - | - |
| 1778014293 | 18.89° C | 47% | 1012.1 hPa | 0 mm | 1.79 m/s, 212° | - | - |
| 1778013694 | 18.89° C | 47% | 1012.3 hPa | 0 mm | 2.68 m/s, 209° | - | - |
| 1778013094 | 19.44° C | 48% | 1012.5 hPa | 0 mm | 2.24 m/s, 201° | - | - |
| 1778012494 | 18.89° C | 48% | 1012.4 hPa | 0 mm | 2.68 m/s, 216° | - | - |
| 1778011893 | 19.44° C | 48% | 1012.2 hPa | 0 mm | 3.13 m/s, 192° | - | - |
| 1778011293 | 20° C | 47% | 1012.2 hPa | 0 mm | 3.13 m/s, 201° | - | - |
| 1778010694 | 19.44° C | 47% | 1012.5 hPa | 0 mm | 1.79 m/s, 246° | - | - |
| 1778010095 | 19.44° C | 46% | 1012.5 hPa | 0 mm | 2.24 m/s, 243° | - | - |
| 1778009493 | 18.89° C | 47% | 1012.6 hPa | 0 mm | 1.34 m/s, 203° | - | - |
| 1778008893 | 18.33° C | 51% | 1012.5 hPa | 0 mm | 2.68 m/s, 205° | - | - |
| 1778008293 | 18.89° C | 50% | 1012.5 hPa | 0 mm | 1.79 m/s, 220° | - | - |
| 1778007694 | 18.33° C | 52% | 1012.6 hPa | 0 mm | 1.79 m/s, 209° | - | - |
| 1778007093 | 18.33° C | 51% | 1012.8 hPa | 0 mm | 2.24 m/s, 210° | - | - |
| 1778006494 | 18.33° C | 52% | 1012.8 hPa | 0 mm | 3.58 m/s, 202° | - | - |
| 1778005893 | 18.89° C | 50% | 1012.9 hPa | 0 mm | 2.24 m/s, 195° | - | - |
* Rain latest hour (hover to see other rain measurements)
** Current wind speed in m/s (hover to see current wind gust speed)